Gardena, North Dakota
Current Conditions -  °F | °C
As of 5:55 AM on Thursday 27 Nov 2014 (Local Time) from KRUG Reporting Station
Clear Clear  
Wind Chill: -29°   Ceiling: Unl
Heat Index: -17°   Visibility: 10mi
Dew Point: -20°   Wind: 5mph
Humidity: 84%   Direction: 130°SE
Pressure: 30.37"   Gusts: NA
Location:  48.6836°N, 100.4843°W
Report Text: KRUG 271155Z AUTO 13004KT 10SM CLR M27/M29 A3037 RMK AO2
Loading
Personal Weather Stations






























Interactive Weather Map New forecast layout! Learn more

10-Day Weather Forecast

Advertisements
Track Severe Weather on mobile